Regional Weather Roundup
Issued by NWS Charleston, WV

Home | Current Version | Previous Version | Graphics & Text | Print | Product List | Glossary On
Versions: 1 2 3 4 5 6 7 8 9 10 11 12 13 14 15 16 17 18 19 20 21 22 23 24 25 26 27 28 29 30 31 32 33 34 35 36 37 38 39 40 41 42 43 44 45 46 47 48 49 50
000
ASUS41 KRLX 060810
RWRRLX
West Virginia Regional Weather Roundup
National Weather Service Charleston WV
300 AM EST SAT FEB 06 2016

Note: "fair" indicates few or no clouds below 12,000 feet with no
significant weather and/or obstructions to visibility.

WVZ003-060900-
Northern Panhandle of West Virginia

CITY           SKY/WX    TMP DP  RH WIND       PRES   REMARKS
WHEELING         N/A     29  16  58 S8        30.30S
$$

WVZ009-060900-
Northwest West Virginia

CITY           SKY/WX    TMP DP  RH WIND       PRES   REMARKS
PARKERSBURG      N/A     29  16  58 S6        30.37R
$$

WVZ006-060900-
Western West Virginia

CITY           SKY/WX    TMP DP  RH WIND       PRES   REMARKS
HUNTINGTON       N/A     29  17  61 S3        30.35S
$$

WVZ015-060900-
West Central West Virginia

CITY           SKY/WX    TMP DP  RH WIND       PRES   REMARKS
CHARLESTON     MOCLDY    26  21  81 N3        30.36S
$$

WVZ022-031-060900-
North Central West Virginia

CITY           SKY/WX    TMP DP  RH WIND       PRES   REMARKS
CLARKSBURG       N/A     26  17  68 SE3       30.34S
MORGANTOWN       N/A     25  16  68 S3        30.34S
$$

WVZ025-035-042-045-060900-
Southern West Virginia

CITY           SKY/WX    TMP DP  RH WIND       PRES   REMARKS
BECKLEY          N/A     24  13  62 SE5       30.31S
LOGAN            N/A     30  16  55 CALM      30.33S
BLUEFIELD        N/A     25  10  53 CALM      30.31S
LEWISBURG        N/A     22  17  81 CALM      30.34R
$$

WVZ047-060900-
Northern Mountains of West Virginia

CITY           SKY/WX    TMP DP  RH WIND       PRES   REMARKS
ELKINS           N/A     19  15  84 CALM      30.34R
$$

WVZ052-060900-
Eastern Panhandle of West Virginia

CITY           SKY/WX    TMP DP  RH WIND       PRES   REMARKS
MARTINSBURG      N/A     21  16  81 SW3       30.38S
PETERSBURG       N/A     23  19  85 CALM      30.39S
$$



USA.gov is the U.S. government's official web portal to all federal, state and local government web resources and services.